Zurück zum Katalog

FENGYUN 1C DEB

AktivPO
NORAD 33676·DEBRIS·🇨🇳 China

Gestartet May 10, 1999 von Taiyuan Satellite Launch Center

Loading…

Nächste Überflüge (nächste 24 Stunden)

TLE

AktuellSource: Space-Track

Epoche: Sep 14, 2026, 09:32 UTC

1 33676U 99025DFM 26257.39727246  .00000176  00000-0  63952-4 0  9995
2 33676  99.0662 301.6045 0203182 343.3706  16.0879 14.35801788692665

Verfolge FENGYUN 1C DEB in Echtzeit mit AllMySat

Download on the App Store